DW7572 Weather Reports


Display with metric or nautical units.
time (UTC)temp
F
wind
direction
speed
MPH
gust
MPH
rain 1hr
in
rain 24hr
in
rain mn
in
humidity
%
barometer
mb
20260509180038 61 338 21.0 35.0 0.00 0.00 0.00 32 1009.4
20260509173018 61 338 21.0 35.0 0.00 0.00 0.00 37 1009.1
20260509170038 59 338 21.0 33.0 0.00 0.00 0.00 38 1009.0
20260509163017 59 338 20.0 33.0 0.00 0.00 0.00 41 1008.8
20260509160017 57 338 21.0 33.0 0.00 0.00 0.00 46 1008.5
20260509153059 56 338 20.0 29.0 0.00 0.00 0.00 55 1008.2
20260509150018 56 338 19.0 29.0 0.00 0.00 0.00 60 1008.0
20260509143017 54 338 19.0 30.0 0.00 0.00 0.00 66 1007.6
20260509140017 54 338 22.0 29.0 0.00 0.00 0.00 72 1007.2
20260509133018 54 338 21.0 29.0 0.00 0.00 0.00 74 1006.5
20260509130017 54 315 19.0 26.0 0.00 0.00 0.00 77 1005.7
20260509123016 53 293 14.0 22.0 0.00 0.00 0.00 74 1005.5
20260509120017 51 293 4.0 13.0 0.00 0.00 0.00 71 1005.0
20260509113016 50 293 2.0 8.0 0.00 0.00 0.00 65 1004.5
20260509110017 51 338 5.0 11.0 0.00 0.00 0.00 63 1004.7
20260509103016 50 338 10.0 14.0 0.00 0.00 0.00 60 1004.3
20260509100016 50 315 8.0 15.0 0.00 0.00 0.00 57 1004.2
20260509093036 51 315 11.0 28.0 0.00 0.00 0.00 56 1003.4
20260509090017 46 225 5.0 8.0 0.00 0.00 0.00 63 1002.0
20260509083017 46 225 3.0 6.0 0.00 0.00 0.00 61 1001.8
20260509080016 47 225 4.0 7.0 0.00 0.00 0.00 59 1001.8
20260509073016 47 225 3.0 7.0 0.00 0.00 0.00 57 1001.9
20260509070037 48 248 3.0 5.0 0.00 0.00 0.00 56 1002.4
20260509063016 48 248 4.0 8.0 0.00 0.00 0.00 54 1002.9
20260509060016 52 315 2.0 4.0 0.00 0.00 0.00 47 1003.3
20260509053016 54 315 1.0 3.0 0.00 0.00 0.00 44 1003.6
20260509050027 55 315 1.0 4.0 0.00 0.00 0.00 43 1004.0
20260509043017 57 315 3.0 6.0 0.00 0.00 0.00 41 1004.2
20260509040017 57 338 8.0 11.0 0.00 0.00 0.00 40 1004.4
20260509033016 60 338 10.0 16.0 0.00 0.00 0.00 37 1004.4
20260509030017 62 338 14.0 18.0 0.00 0.00 0.00 34 1004.3
20260509023017 62 315 13.0 18.0 0.00 0.00 0.00 33 1004.0
20260509020017 64 315 14.0 20.0 0.00 0.00 0.00 30 1003.7
20260509013017 66 315 17.0 25.0 0.00 0.00 0.00 27 1003.4
20260509010017 68 338 20.0 31.0 0.00 0.00 0.00 26 1003.1
20260509003017 71 315 21.0 31.0 0.00 0.00 0.00 26 1002.9
20260509000037 72 315 23.0 34.0 0.00 0.00 0.00 27 1002.9
20260508233016 73 315 23.0 33.0 0.00 0.00 0.00 26 1003.0
20260508230016 74 315 19.0 32.0 0.00 0.00 0.00 25 1002.9
20260508223016 74 315 21.0 28.0 0.00 0.00 0.00 26 1002.9
20260508220016 74 315 17.0 30.0 0.00 0.00 0.00 24 1002.8
20260508213017 75 293 11.0 28.0 0.00 0.00 0.00 25 1003.0
20260508210016 75 293 8.0 20.0 0.00 0.00 0.00 26 1003.5
20260508203015 73 315 12.0 24.0 0.00 0.00 0.00 24 1003.9
20260508200056 71 315 17.0 28.0 0.00 0.00 0.00 26 1004.4
20260508193018 71 315 17.0 27.0 0.00 0.00 0.00 25 1004.8
20260508190018 72 293 14.0 26.0 0.00 0.00 0.00 23 1005.0
20260508183018 72 293 10.0 24.0 0.00 0.00 0.00 22 1005.4